"Pseudo-MPEC" for P21vRLl

Created 2022 Aug 16 19:22:12 UT using Find_Orb

Click here for an explanation of pseudo-MPECs

 
 Astrometry: 
     P21vRLl* C2022 08 05hI`.:=7T'9RhImMPIfHAstrometry;p^isq)0ASA[a\RSjYFvGbEF52
     P21vRLl  C2022 08 05niPrUR37VSb`YrXKy5g5gt%F@H)!prQh(^Ubu2;7Lt/*O5)d?RvxF52
     P21vRLl  C2022 08 05RTyVqLa_.y;pt'eeS_O7hd@Sf9_l7redacted;2F82Vc8rHFq=pFF52
     P21vRLl  C2022 08 05D[1clickQt`hc$cpDhereVU`HFsI8_Y!w+$C#u9#tNhKH)n1-W'RF52
     P21vRLl  C2022 08 0536l67e_)$_for!Jcx'87*2eL8hU,y==[I*K;explanation@b[%lF52
     P21vRLl  C2022 08 05_xQaHn_)`Qgsp9e^IK8fhsirD*9aer-Kp8fr`K!FVBs'6^e_/#%wF52

Station data:
(F52) Pan-STARRS 2, Haleakala  (N20.707382 W156.255910)  US/Hawaii.
   Observers J. Bulger, T. Dukes, T. Lowe, A. Schultz, M. Willman. Measurers
   K. Chambers, S. Chastel, T. de Boer, L. Denneau, J. Fairlamb, H.
   Flewelling, M. Huber, C.-C. Lin, E. Magnier, Y. Ramanjooloo, R. Wainscoat,
   R. Weryk. 1.8-m Ritchey-Chrétien + CCD.

Orbital elements:  P21vRLl
   Perihelion 2022 Sep 5.11078 +/- 32.1 TT =  2:39:31 (JD 2459827.61078)
Epoch 2022 Aug  6.0 TT = JDT 2459797.5   Earth MOID: 0.1161   AutoNEOCP
M 345.53366591 +/- 14               (J2000 ecliptic)
n   0.48043711 +/- 0.282            Peri.  225.20117 +/- 70
a   1.61452588 +/- 0.632            Node   118.82169 +/- 46
e   0.3197357 +/- 0.224             Incl.    7.10156 +/- 4.4
P   2.05/749.30d           H 24.6   G  0.15   U 11.9  SR
q 1.09830432 +/- 0.21    Q 2.13074745 +/- 42.5
From 6 observations 2022 Aug. 5 (2.2 hr); mean residual 0".10
Residuals in arcseconds: 
220805 F52  .10-  .26-    220805 F52  .03+  .17+    220805 F52  .00   .01-    
220805 F52  .07+  .09+    220805 F52  .03+  .08+    220805 F52  .02-  .07-    

Ephemerides (geocentric):
Date (UTC) HH   RA             Dec           delta  r     elong  mag " sig PA
---- --------  ------------   ------------  ------ ------ -----  --- --------
2022 08 16 19  23 38 56.499   -36 19 41.56  .11887 1.1127 145.7 21.6  35d 160
2022 08 16 20  23 39 13.361   -36 21 12.32  .11886 1.1127 145.6 21.6  35d 160
2022 08 16 21  23 39 30.228   -36 22 42.88  .11885 1.1126 145.6 21.6  35d 160
2022 08 16 22  23 39 47.099   -36 24 13.24  .11885 1.1126 145.5 21.6  35d 160
2022 08 16 23  23 40 03.975   -36 25 43.39  .11884 1.1125 145.5 21.6  35d 160
2022 08 17 00  23 40 20.854   -36 27 13.34  .11883 1.1124 145.4 21.6  35d 160
2022 08 17 01  23 40 37.738   -36 28 43.09  .11883 1.1124 145.4 21.6  35d 160
2022 08 17 02  23 40 54.626   -36 30 12.63  .11882 1.1123 145.4 21.6  36d 160
2022 08 17 03  23 41 11.518   -36 31 41.97  .11881 1.1123 145.3 21.6  36d 160
2022 08 17 04  23 41 28.414   -36 33 11.11  .11881 1.1122 145.3 21.6  36d 160
2022 08 17 05  23 41 45.314   -36 34 40.04  .11880 1.1121 145.2 21.6  36d 160
2022 08 17 06  23 42 02.217   -36 36 08.77  .11880 1.1121 145.2 21.6  36d 160
2022 08 17 07  23 42 19.124   -36 37 37.28  .11879 1.1120 145.1 21.6  36d 160
2022 08 17 08  23 42 36.035   -36 39 05.60  .11879 1.1120 145.1 21.6  36d 160
2022 08 17 09  23 42 52.949   -36 40 33.70  .11878 1.1119 145.0 21.6  36d 160
2022 08 17 10  23 43 09.867   -36 42 01.60  .11878 1.1118 145.0 21.6  36d 160
2022 08 17 11  23 43 26.789   -36 43 29.29  .11877 1.1118 145.0 21.6  36d 160
2022 08 17 12  23 43 43.713   -36 44 56.77  .11877 1.1117 144.9 21.6  36d 160
2022 08 17 13  23 44 00.641   -36 46 24.05  .11876 1.1117 144.9 21.6  36d 160
2022 08 17 14  23 44 17.572   -36 47 51.11  .11876 1.1116 144.8 21.6  36d 160
2022 08 17 15  23 44 34.506   -36 49 17.96  .11876 1.1115 144.8 21.6  36d 160
2022 08 17 16  23 44 51.443   -36 50 44.61  .11875 1.1115 144.7 21.6  36d 160
2022 08 17 17  23 45 08.383   -36 52 11.04  .11875 1.1114 144.7 21.6  36d 160
2022 08 17 18  23 45 25.325   -36 53 37.26  .11875 1.1114 144.6 21.6  36d 160
2022 08 17 19  23 45 42.271   -36 55 03.27  .11874 1.1113 144.6 21.6  37d 160
2022 08 17 20  23 45 59.219   -36 56 29.07  .11874 1.1112 144.6 21.6  37d 160
2022 08 17 21  23 46 16.170   -36 57 54.66  .11874 1.1112 144.5 21.6  37d 160
2022 08 17 22  23 46 33.123   -36 59 20.03  .11873 1.1111 144.5 21.6  37d 160
2022 08 17 23  23 46 50.079   -37 00 45.19  .11873 1.1111 144.4 21.6  37d 160
2022 08 18 00  23 47 07.037   -37 02 10.14  .11873 1.1110 144.4 21.6  37d 160
2022 08 18 01  23 47 23.998   -37 03 34.87  .11873 1.1110 144.3 21.6  37d 160
2022 08 18 02  23 47 40.960   -37 04 59.39  .11873 1.1109 144.3 21.6  37d 160
2022 08 18 03  23 47 57.925   -37 06 23.70  .11872 1.1108 144.2 21.6  37d 160
2022 08 18 04  23 48 14.892   -37 07 47.78  .11872 1.1108 144.2 21.6  37d 160
2022 08 18 05  23 48 31.860   -37 09 11.66  .11872 1.1107 144.2 21.6  37d 160
2022 08 18 06  23 48 48.831   -37 10 35.31  .11872 1.1107 144.1 21.6  37d 160
2022 08 18 07  23 49 05.803   -37 11 58.76  .11872 1.1106 144.1 21.6  37d 160
2022 08 18 08  23 49 22.777   -37 13 21.98  .11872 1.1106 144.0 21.6  37d 160
2022 08 18 09  23 49 39.753   -37 14 44.99  .11872 1.1105 144.0 21.6  37d 160
2022 08 18 10  23 49 56.731   -37 16 07.78  .11872 1.1104 143.9 21.6  37d 160
2022 08 18 11  23 50 13.709   -37 17 30.35  .11872 1.1104 143.9 21.6  37d 160
2022 08 18 12  23 50 30.690   -37 18 52.70  .11872 1.1103 143.8 21.6  37d 160
2022 08 18 13  23 50 47.671   -37 20 14.83  .11872 1.1103 143.8 21.6  37d 160
2022 08 18 14  23 51 04.654   -37 21 36.75  .11872 1.1102 143.8 21.6  38d 160
2022 08 18 15  23 51 21.638   -37 22 58.44  .11872 1.1102 143.7 21.6  38d 160
2022 08 18 16  23 51 38.623   -37 24 19.92  .11872 1.1101 143.7 21.6  38d 160
2022 08 18 17  23 51 55.609   -37 25 41.17  .11872 1.1100 143.6 21.6  38d 160
2022 08 18 18  23 52 12.596   -37 27 02.21  .11872 1.1100 143.6 21.6  38d 160